Location: Houston
(29.7630°N, 95.3630°W)
Time: 08:29:17
(UTC-05:00)

Saudisat 1A - Visible Passes

Search period start: 21 October 2014 00:00
Search period end: 31 October 2014 00:00
Orbit: 598 x 608 km, 64.6° (Epoch: 19 October)

Date Brightness Start Highest point End Pass type
(mag) Time Alt. Az. Time Alt. Az. Time Alt. Az.
22 Oct 10.5 19:02:20 10° NW 19:06:07 28° WSW 19:09:54 10° S visible
23 Oct 11.4 19:15:51 10° WNW 19:18:01 14° WSW 19:20:11 10° SW visible
26 Oct 11.2 06:21:57 10° SE 06:24:20 15° ESE 06:26:43 10° ENE visible
27 Oct 10.1 06:32:24 10° S 06:36:13 30° ESE 06:40:04 10° NE visible
28 Oct 8.4 06:43:52 10° SSW 06:48:11 67° ESE 06:52:33 10° NNE visible
29 Oct 8.1 06:55:58 10° SW 07:00:15 56° WNW 07:04:35 10° NNE visible
30 Oct 10.5 05:29:48 10° SSE 05:33:04 21° ESE 05:36:21 10° ENE visible
